Flag for U.S.A. Weather past 2 weeks in Macon, Georgia, U.S.A.

Now
78 °F

Passing clouds.


Feels Like: 81 °F
Forecast: 70 / 86 °F
Wind: No wind

Location: Middle Georgia Regional Airport

Current Time: Jul 24, 2014 at 11:50:51 PM

Latest Report: Jul 24, 2014 at 10:53 PM


Visibility: 10 mi

Pressure: 29.95 "Hg

Humidity: 82%

Dew point: 72 °F

Location of MaconLocation

Historic Weather in Macon — Graph

°F

Macon temperature yesterday

Maximum temperature yesterday: 88 °F (at 2:53 PM)
Minimum temperature yesterday: 69 °F (at 6:53 AM)
Average temperature yesterday: 79 °F

Past Weeks' High & Low Weather Summary

 TemperatureHumidityPressure
High91 °F (Jul 14, 1:53 PM)100% (Jul 12, 12:53 AM)30.19 "Hg (Jul 12, 12:53 AM)
Low59 °F (Jul 17, 4:53 AM)29% (Jul 16, 4:53 PM)29.81 "Hg (Jul 15, 6:53 PM)
Average77 °F84%30.02 "Hg
* Reported Jul 11 9:53 AM — Jul 24 9:53 PM, Macon, Weather by CustomWeather, © 2014

Note: Actual official high and low records may vary slightly from our data, if they occured in-between our weather recording intervals... More about our weather records

Advertising

Macon weather history for previous 24 hours

 ConditionsComfort  
Time TempWeatherWind HumidityBarometerVisibility
9:53 PM
Jul 24
76 °FPassing clouds.No wind91%29.94 "Hg10 mi
8:53 PM80 °FSunny.No wind74%29.91 "Hg10 mi
7:53 PM85 °FSunny.3 mph57%29.91 "Hg10 mi
6:53 PM87 °FSunny.7 mph53%29.90 "Hg10 mi
5:53 PM89 °FSunny.9 mph52%29.90 "Hg10 mi
4:53 PM89 °FScattered clouds.9 mph52%29.91 "Hg10 mi
3:53 PM89 °FPassing clouds.9 mph52%29.92 "Hg10 mi
2:53 PM88 °FScattered clouds.8 mph57%29.94 "Hg10 mi
1:53 PM88 °FScattered clouds.12 mph59%29.96 "Hg10 mi
12:53 PM88 °FScattered clouds.10 mph55%29.97 "Hg10 mi
11:53 AM87 °FScattered clouds.9 mph63%29.98 "Hg10 mi
10:53 AM84 °FPassing clouds.6 mph77%29.99 "Hg10 mi
9:53 AM81 °FSunny.6 mph82%29.99 "Hg10 mi
8:53 AM77 °FSunny.5 mph90%29.99 "Hg10 mi
7:53 AM74 °FSunny.3 mph100%29.98 "Hg5 mi
6:53 AM72 °FClear.3 mph100%29.96 "Hg10 mi
5:53 AM73 °FClear.5 mph100%29.96 "Hg10 mi
4:53 AM73 °FClear.3 mph100%29.95 "Hg10 mi
3:53 AM74 °FPassing clouds.5 mph97%29.95 "Hg10 mi
2:53 AM74 °FClear.3 mph97%29.96 "Hg10 mi
1:53 AM75 °FClear.3 mph94%29.97 "Hg10 mi
12:53 AM75 °FClear.No wind94%29.99 "Hg10 mi
11:53 PM
Jul 23
75 °FClear.No wind96%29.98 "Hg10 mi
Weather by CustomWeather, © 2014

See weather overviewHow to use our weather pages